Location: Ecklingerode
(51.5036°N, 10.3122°E)
Time: 07:38:46
(UTC+00:00)

Cosmos 2219 - Pass Details

Date: 29 October 2020
Orbit: 832 x 862 km, 71.1° (Epoch: 01 December)

Event Time Altitude Azimuth Distance (km) Brightness Sun altitude
Rises 16:18:47 0° 330° (NNW) 3,446 6.6 -4.1°
Reaches altitude 10° 16:21:17 10° 334° (NNW) 2,508 5.8 -4.5°
Maximum altitude 16:27:02 64° 55° (NE) 953 3.3 -5.3°
Drops below altitude 10° 16:32:44 10° 138° (SE) 2,496 5.4 -6.2°
Sets 16:35:13 0° 141° (SE) 3,428 6.1 -6.6°
